TimeEDT,TemperatureF,Dew PointF,Humidity,Sea Level PressureIn,VisibilityMPH,Wind Direction,Wind SpeedMPH,Gust SpeedMPH,PrecipitationIn,Events,Conditions,WindDirDegrees,DateUTC
12:16 AM,50.2,37.8,62,30.02,10.0,NNE,9.2,-,N/A,,Overcast,20,2013-05-09 04:16:00
12:37 AM,50.0,38.1,64,30.02,10.0,NNE,4.6,-,N/A,,Overcast,20,2013-05-09 04:37:00
12:57 AM,50.4,38.3,63,30.02,10.0,North,6.9,-,N/A,,Overcast,10,2013-05-09 04:57:00
1:16 AM,50.4,38.3,63,30.02,10.0,North,5.8,-,N/A,,Overcast,360,2013-05-09 05:16:00
1:37 AM,50.4,38.3,63,30.01,10.0,North,3.5,-,N/A,,Overcast,350,2013-05-09 05:37:00
1:57 AM,50.4,38.5,64,30.01,10.0,Calm,Calm,-,N/A,,Overcast,0,2013-05-09 05:57:00
2:17 AM,50.4,38.5,64,30.01,10.0,Calm,Calm,-,N/A,,Overcast,0,2013-05-09 06:17:00
2:37 AM,51.4,38.3,61,30.00,10.0,NE,8.1,-,N/A,,Overcast,40,2013-05-09 06:37:00
2:57 AM,51.8,38.1,60,29.99,10.0,NE,10.4,-,N/A,,Overcast,40,2013-05-09 06:57:00
3:17 AM,51.4,38.3,61,29.98,10.0,NNE,10.4,-,N/A,,Overcast,30,2013-05-09 07:17:00
3:37 AM,50.9,38.3,62,29.98,10.0,NE,8.1,-,N/A,,Overcast,50,2013-05-09 07:37:00
3:57 AM,49.6,38.5,65,29.98,10.0,NE,9.2,-,N/A,,Scattered Clouds,40,2013-05-09 07:57:00
4:17 AM,47.7,38.1,70,29.98,10.0,NE,6.9,-,N/A,,Scattered Clouds,40,2013-05-09 08:17:00
4:37 AM,46.4,37.4,71,29.98,10.0,NNE,12.7,-,N/A,,Scattered Clouds,20,2013-05-09 08:37:00
4:56 AM,45.5,37.8,74,29.99,10.0,North,8.1,-,N/A,,Mostly Cloudy,10,2013-05-09 08:56:00
5:17 AM,45.7,38.3,75,29.99,10.0,North,11.5,-,N/A,,Overcast,10,2013-05-09 09:17:00
5:37 AM,45.5,38.3,76,29.99,10.0,North,11.5,-,N/A,,Mostly Cloudy,10,2013-05-09 09:37:00
5:57 AM,45.0,38.8,79,30.00,10.0,North,10.4,-,N/A,,Scattered Clouds,10,2013-05-09 09:57:00
6:50 AM,42.8,39.2,87,30.02,10.0,NNE,16.1,-,N/A,,Scattered Clouds,20,2013-05-09 10:50:00
7:50 AM,42.8,37.4,81,30.04,10.0,North,15.0,-,N/A,,Overcast,10,2013-05-09 11:50:00
8:45 AM,42.8,37.4,81,30.06,10.0,NNE,15.0,-,N/A,,Overcast,20,2013-05-09 12:45:00
9:15 AM,42.8,37.4,81,30.06,10.0,NNE,16.1,23.0,N/A,,Overcast,30,2013-05-09 13:15:00
9:50 AM,44.6,37.4,76,30.07,10.0,NE,17.3,23.0,N/A,,Overcast,40,2013-05-09 13:50:00
10:50 AM,44.6,37.4,76,30.07,10.0,NE,9.2,-,N/A,,Scattered Clouds,40,2013-05-09 14:50:00
11:50 AM,41.0,35.6,81,30.09,10.0,NNE,17.3,-,N/A,,Overcast,30,2013-05-09 15:50:00
12:50 PM,39.2,35.6,87,30.10,10.0,NNE,16.1,19.6,N/A,,Overcast,30,2013-05-09 16:50:00
1:55 PM,41.0,35.6,81,30.10,10.0,NNE,13.8,21.9,N/A,,Overcast,20,2013-05-09 17:55:00
2:55 PM,37.4,33.8,87,30.11,3.0,NNE,19.6,25.3,N/A,,Overcast,30,2013-05-09 18:55:00
3:50 PM,37.4,33.8,87,30.12,10.0,NNE,18.4,25.3,N/A,,Overcast,20,2013-05-09 19:50:00
4:50 PM,37.4,33.8,87,30.12,10.0,North,17.3,20.7,N/A,,Overcast,10,2013-05-09 20:50:00
5:19 PM,35.6,33.8,93,30.12,2.0,North,18.4,-,N/A,,Overcast,10,2013-05-09 21:19:00
5:50 PM,35.6,33.8,93,30.13,10.0,NNE,17.3,23.0,N/A,Rain,Light Rain,20,2013-05-09 21:50:00
6:50 PM,35.6,33.8,93,30.12,10.0,NNE,17.3,-,N/A,,Light Drizzle,20,2013-05-09 22:50:00
7:55 PM,35.6,32.0,87,30.11,7.0,NNE,15.0,24.2,N/A,Rain,Rain,20,2013-05-09 23:55:00
8:50 PM,33.8,32.0,93,30.13,10.0,NNE,17.3,-,N/A,,Drizzle,20,2013-05-10 00:50:00
9:45 PM,33.8,32.0,93,30.11,5.0,NNE,18.4,-,N/A,Rain,Light Rain,30,2013-05-10 01:45:00
10:16 PM,34.9,32.9,92,30.12,10.0,NNE,13.8,23.0,N/A,,Drizzle,30,2013-05-10 02:16:00
10:37 PM,34.9,32.7,92,30.14,10.0,NE,15.0,21.9,N/A,,Drizzle,40,2013-05-10 02:37:00
10:57 PM,34.9,32.4,91,30.14,10.0,NE,13.8,-,N/A,,Light Drizzle,40,2013-05-10 02:57:00
11:17 PM,35.1,32.4,90,30.14,10.0,NNE,13.8,18.4,N/A,,Light Drizzle,30,2013-05-10 03:17:00
11:37 PM,35.6,32.0,87,30.14,10.0,NNE,16.1,-,N/A,,Overcast,30,2013-05-10 03:37:00
11:57 PM,35.1,32.2,89,30.14,10.0,NE,15.0,-,N/A,,Drizzle,40,2013-05-10 03:57:00